#timestamp,LO_Frequency,Hit 
1498561215.8,286046974.2,N
1498561235.7,286046976.8,N
1498561255.5,286046974.3,N
1498561275.3,286046975.0,N
1498561295.2,286046974.4,N
1498561315.9,286046974.5,N
1498561335.7,286046975.1,N
1498561355.6,286046976.9,N
1498561375.4,286046974.6,N
1498561395.2,286046976.7,N
1498561415.1,286046975.9,N
1498561416.0,286046975.9,N
1498561435.8,286046978.4,N
1498561455.6,286046978.3,N
1498561475.4,286046977.4,N
1498561495.3,286046977.5,N
1498561515.1,286046976.4,N
1498561535.8,286046974.1,N
1498561555.7,286046974.9,N
1498561575.5,286046974.5,N
1498561595.3,286046974.5,N
1498561615.2,286046975.6,N
1498561635.9,286046972.5,N
1498561655.7,286046975.1,N
1498561675.6,286046975.6,N
1498561695.4,286046972.9,N
1498561715.2,286046973.6,N
1498561735.1,286046973.8,N
1498561736.0,286046973.8,N
1498561755.8,286046973.8,N
1498561775.6,286046973.6,N
1498561795.5,286046974.0,N
1498561815.3,286046973.5,N
1498561835.1,286046971.4,N
1498561855.9,286046971.8,N
1498561875.7,286046972.1,N
1498561895.5,286046972.1,N
1498561915.3,286046971.6,N
1498561935.2,286046972.4,N
1498561955.9,286046969.7,N
1498561975.7,286046970.2,N
1498561995.6,286046967.7,N
1498562015.4,286046968.2,N
1498562035.2,286046970.7,N
1498562055.1,286046970.5,N
1498562056.0,286046970.5,N
1498562075.8,286046970.8,N
1498562095.6,286046970.5,N
1498562115.5,286046970.2,N
1498562135.3,286046968.0,N
1498562155.1,286046968.9,N
1498562175.9,286046969.0,N
1498562195.7,286046969.2,N
1498562215.5,286046967.0,N
1498562235.3,286046964.5,N
1498562255.2,286046967.1,N
1498562275.0,286046967.6,N
1498562275.9,286046967.6,N
1498562295.7,286046964.5,N
1498562315.6,286046967.6,N
1498562335.4,286046964.9,N
1498562355.2,286046965.8,N
1498562375.1,286046963.6,N
1498562376.0,286046963.6,N
1498562395.8,286046964.3,N
1498562415.6,286046960.1,N
1498562435.5,286046962.5,N
1498562455.3,286046962.0,N
1498562475.1,286046959.8,N
1498562495.8,286046959.7,N
1498562515.7,286046959.8,N
1498562535.5,286046960.3,N
1498562555.3,286046960.1,N
1498562575.2,286046960.3,N
1498562595.9,286046960.0,N
1498562615.7,286046961.1,N
1498562635.6,286046958.9,Y
1498562655.4,286046990.9,N
1498562675.2,286046990.1,N
1498562695.1,286046992.0,N
1498562696.0,286046992.0,N
1498562715.8,286046990.1,N
1498562735.6,286046990.4,N
1498562755.5,286046991.2,N
1498562775.3,286046988.8,N
1498562795.1,286046988.7,N
1498562815.9,286046989.5,N
1498562835.7,286046989.8,N
1498562855.5,286046987.1,N
1498562875.3,286046987.7,N
1498562895.2,286046988.3,N
1498562915.0,286046986.8,N
1498562915.9,286046986.8,N
1498562935.7,286046986.1,N
1498562955.6,286046983.7,N
1498562975.4,286046985.0,N
1498562995.2,286046985.0,N
1498563015.1,286046984.9,N
1498563016.0,286046984.9,N
1498563035.8,286046982.7,N
1498563055.6,286046983.6,N
1498563075.5,286046982.4,N
1498563095.3,286046983.5,N
1498563115.1,286046980.6,N
1498563135.9,286046981.6,N
1498563155.7,286046980.7,N
1498563175.5,286046980.8,N
1498563195.4,286046983.2,N
1498563215.2,286046982.4,N
1498563235.0,286046983.1,N
1498563235.9,286046983.1,N
1498563255.7,286046980.6,N
1498563275.6,286046981.8,N
1498563295.4,286046981.6,N
1498563315.2,286046979.9,N
1498563335.1,286046979.6,N
1498563336.0,286046979.6,N
1498563355.8,286046978.9,N
1498563375.6,286046979.6,N
1498563395.5,286046977.4,N
1498563415.3,286046980.3,N
1498563435.1,286046979.9,N
1498563455.9,286046980.2,N
1498563475.7,286046977.6,N
1498563495.5,286046978.2,N
1498563515.4,286046978.5,N
1498563535.2,286046976.1,N
1498563555.0,286046976.4,N
1498563555.9,286046976.4,N
1498563575.8,286046977.1,N
1498563595.6,286046974.5,N
1498563615.4,286046974.9,N
1498563635.3,286046975.1,N
1498563655.1,286046973.6,N
1498563656.0,286046973.6,N
1498563675.8,286046973.9,N
1498563695.6,286046973.8,N
1498563715.5,286046971.7,N
1498563735.3,286046971.1,N
1498563755.1,286046973.9,N
1498563775.9,286046973.9,N
1498563795.7,286046973.9,N
1498563815.5,286046971.3,N
1498563835.4,286046973.8,N
1498563855.2,286046974.0,N
1498563875.0,286046971.2,N
1498563875.9,286046971.2,N
1498563895.8,286046972.1,N
1498563915.6,286046969.3,N
1498563935.4,286046970.3,N
1498563955.2,286046967.7,N
1498563975.1,286046970.3,N
1498563976.0,286046970.3,N
1498563995.8,286046970.2,N
1498564015.6,286046971.9,N
1498564035.5,286046971.8,N
1498564055.3,286046969.4,N
1498564075.1,286046970.4,N
1498564095.9,286046968.3,N
1498564115.7,286046968.4,N
1498564135.5,286046966.3,Y
1498564155.4,286047002.4,N
1498564175.2,286047002.3,N
1498564195.0,286047002.7,N
1498564195.9,286047002.7,N
1498564215.8,286047000.0,N
1498564235.6,286046999.9,N
1498564255.4,286047000.6,N
1498564275.3,286046998.1,N
1498564295.1,286046999.0,N
1498564296.0,286046999.0,N
1498564315.8,286046998.6,N
1498564335.7,286046999.4,N
1498564355.5,286046998.9,N
1498564375.3,286046999.4,N
1498564395.1,286046996.6,N
1498564415.9,286046997.7,N
1498564435.7,286046997.8,N
1498564455.5,286046996.3,N
1498564475.4,286046993.4,N
1498564495.2,286046994.1,N
1498564515.0,286046996.0,N
1498564515.9,286046996.0,N
1498564535.8,286046993.8,N
1498564555.6,286046997.9,N
1498564575.4,286046995.7,N
1498564595.3,286046993.7,N
1498564615.1,286046994.3,N
1498564616.0,286046994.3,N
1498564635.8,286046992.0,N
1498564655.7,286046993.0,N
1498564675.5,286046990.8,N
1498564695.3,286046990.8,N
1498564715.1,286046991.4,N
1498564735.9,286046991.5,N
1498564755.7,286046991.3,N
1498564775.5,286046991.5,N
1498564795.4,286046990.8,N
